EXP763 RPLL-RPVE

Flight info

Callsign EXP763
Flight time N/A
Altitude 27000
Route VERDE2R VERDE W24 TAPER TAPER7A
Aircraft A20N/M-SDE2E3FGHIRWXY/LB1

Departure

Time N/A
Airport Ninoy Aquino International Airport (RPLL)

Arrival

Time 2026-05-01 08:03
Airport Godofredo P. Ramos Airport (RPVE)
Time Latitude Longitude Altitude Speed Heading
2026-05-01 07:48 12.68055 121.60759 17259 ft 392 kts 147°
2026-05-01 07:48 12.65806 121.62328 16776 ft 389 kts 147°
2026-05-01 07:48 12.63613 121.63856 16303 ft 386 kts 147°
2026-05-01 07:49 12.61424 121.65382 15830 ft 382 kts 147°
2026-05-01 07:49 12.57060 121.68450 14882 ft 376 kts 147°
2026-05-01 07:49 12.54943 121.69936 14420 ft 373 kts 147°
2026-05-01 07:50 12.52803 121.71434 13953 ft 370 kts 147°
2026-05-01 07:50 12.48597 121.74370 13031 ft 365 kts 147°
2026-05-01 07:50 12.46516 121.75821 12574 ft 362 kts 147°
2026-05-01 07:51 12.44436 121.77270 12116 ft 360 kts 147°
2026-05-01 07:51 12.42406 121.78683 11668 ft 357 kts 147°
2026-05-01 07:51 12.40332 121.80125 11201 ft 355 kts 147°
2026-05-01 07:52 12.36015 121.82297 10308 ft 345 kts 175°
2026-05-01 07:52 12.33688 121.82201 10222 ft 326 kts 192°
2026-05-01 07:52 12.31533 121.81747 10137 ft 311 kts 194°
2026-05-01 07:53 12.27498 121.80816 9939 ft 288 kts 195°
2026-05-01 07:53 12.25554 121.80376 9577 ft 287 kts 194°
2026-05-01 07:53 12.23602 121.79941 9240 ft 286 kts 194°
2026-05-01 07:53 12.21690 121.79520 8915 ft 284 kts 194°
2026-05-01 07:54 12.17847 121.78681 8264 ft 281 kts 194°
2026-05-01 07:55 12.12181 121.77453 7329 ft 276 kts 194°
2026-05-01 07:55 12.08456 121.76646 6720 ft 274 kts 194°
2026-05-01 07:56 12.02919 121.75449 5828 ft 270 kts 193°
2026-05-01 07:56 11.99258 121.74659 5244 ft 268 kts 193°
2026-05-01 07:57 11.97441 121.74266 4956 ft 267 kts 192°
2026-05-01 07:57 11.93834 121.73487 4383 ft 265 kts 192°
2026-05-01 07:58 11.90240 121.73350 3827 ft 259 kts 160°
2026-05-01 07:58 11.87184 121.74864 3788 ft 237 kts 150°
2026-05-01 07:59 11.84460 121.76463 3645 ft 222 kts 130°
2026-05-01 07:59 11.84174 121.79228 3250 ft 205 kts 62°
2026-05-01 08:00 11.86856 121.84257 2409 ft 193 kts 60°
2026-05-01 08:01 11.88544 121.87637 1592 ft 159 kts 60°
2026-05-01 08:01 11.89018 121.88582 1394 ft 143 kts 61°
2026-05-01 08:01 11.89466 121.89467 1234 ft 138 kts 60°
2026-05-01 08:02 11.90319 121.91226 910 ft 137 kts 60°
2026-05-01 08:02 11.90756 121.92072 739 ft 137 kts 60°
2026-05-01 08:03 11.91656 121.93783 341 ft 135 kts 62°
2026-05-01 08:03 11.92077 121.94628 142 ft 135 kts 61°
2026-05-01 08:03 11.92732 121.95944 31 ft 36 kts 63°
2026-05-01 08:04 11.92782 121.96124 31 ft 9 kts 152°
2026-05-01 08:04 11.92684 121.96175 31 ft 7 kts 148°
2026-05-01 08:05 11.92648 121.96237 31 ft 3 kts 87°
2026-05-01 08:05 11.92632 121.96255 31 ft 3 kts 160°
2026-05-01 08:05 11.92614 121.96262 31 ft 2 kts 153°
2026-05-01 08:06 11.92599 121.96271 31 ft 0 kts 153°